EW0765 Weather Reports


Display with metric or nautical units.
time (UTC)temp
F
wind
direction
speed
MPH
gust
MPH
rain 1hr
in
rain 24hr
in
rain mn
in
humidity
%
barometer
mb
20260506171552 53 75 0.0 6.0 0.00 1.15 0.23 67 1012.3
20260506170045 53 343 0.0 7.0 0.00 1.17 0.23 72 1012.5
20260506164540 54 321 1.0 10.0 0.00 1.17 0.23 72 1012.2
20260506163039 55 321 0.0 9.0 0.00 1.17 0.23 73 1011.9
20260506161537 54 271 1.0 6.0 0.00 1.17 0.23 72 1011.6
20260506160040 54 327 0.0 5.0 0.00 1.17 0.23 72 1011.6
20260506154535 53 221 1.0 7.0 0.00 1.17 0.23 75 1011.7
20260506153031 53 248 1.0 7.0 0.00 1.17 0.23 80 1011.3
20260506151528 52 300 0.0 7.0 0.00 1.17 0.23 81 1010.9
20260506150025 51 250 0.0 6.0 0.00 1.17 0.23 86 1010.7
20260506144521 50 267 0.0 5.0 0.00 1.17 0.23 85 1010.7
20260506143020 50 236 0.0 6.0 0.00 1.17 0.23 87 1010.7
20260506141517 49 5 0.0 5.0 0.00 1.17 0.23 87 1010.4
20260506140015 49 255 0.0 7.0 0.00 1.17 0.23 89 1010.3
20260506134511 48 261 0.0 2.0 0.00 1.17 0.23 91 1010.4
20260506133011 47 249 0.0 2.0 0.00 1.17 0.23 92 1010.4
20260506131520 48 281 0.0 2.0 0.00 1.17 0.23 94 1010.3
20260506130008 47 301 0.0 0.0 0.00 1.17 0.23 94 1009.7
20260506124505 47 314 0.0 0.0 0.00 1.17 0.23 94 1009.5
20260506123004 47 314 0.0 0.0 0.00 1.17 0.23 95 1009.5
20260506121505 46 314 0.0 0.0 0.00 1.17 0.23 94 1009.3
20260506120007 46 314 0.0 0.0 0.00 1.17 0.23 94 1009.2
20260506114501 46 314 0.0 0.0 0.00 1.17 0.23 95 1009.3
20260506113059 46 314 0.0 0.0 0.00 1.17 0.23 94 1008.9
20260506111557 46 314 0.0 0.0 0.00 1.17 0.23 94 1008.6
20260506110104 45 313 0.0 0.0 0.00 1.17 0.23 94 1008.3
20260506104557 45 313 0.0 0.0 0.00 1.17 0.23 94 1008.0
20260506103055 46 311 0.0 0.0 0.01 1.17 0.23 94 1008.4
20260506101555 46 310 0.0 0.0 0.01 1.17 0.23 94 1008.1
20260506100054 45 311 0.0 0.0 0.02 1.17 0.23 94 1007.4
20260506094619 45 311 0.0 0.0 0.02 1.17 0.23 94 1007.5
20260506093052 45 300 0.0 3.0 0.02 1.15 0.22 94 1008.2
20260506091550 46 35 0.0 1.0 0.03 1.15 0.22 94 1008.4
20260506090049 46 285 0.0 3.0 0.04 1.14 0.21 94 1008.0
20260506084548 46 13 0.0 3.0 0.07 1.14 0.21 94 1007.8
20260506083048 47 348 0.0 0.0 0.07 1.13 0.20 94 1007.6
20260506081546 47 350 0.0 0.0 0.07 1.12 0.19 94 1007.9
20260506073045 47 26 0.0 0.0 0.04 1.07 0.13 94 1007.9
20260506071546 47 26 0.0 0.0 0.03 1.06 0.12 93 1007.6
20260506061539 47 29 0.0 0.0 0.04 1.05 0.09 93 1007.8
20260506044532 47 15 0.0 0.0 0.04 0.98 0.02 93 1008.2
20260506043030 47 14 0.0 0.0 0.05 0.98 0.02 93 1008.2
20260506041528 48 14 0.0 0.0 0.06 0.97 0.01 93 1008.4
20260506040026 48 43 0.0 4.0 0.08 0.96 0.96 93 1008.5
20260506034524 49 326 0.0 0.0 0.09 0.94 0.94 94 1008.7
20260506033023 49 12 0.0 0.0 0.12 0.93 0.93 93 1008.8
20260506031522 50 316 0.0 0.0 0.14 0.91 0.91 94 1008.8
20260506030030 50 316 0.0 0.0 0.14 0.88 0.88 94 1008.9
20260506024535 50 315 0.0 0.0 0.15 0.85 0.85 94 1008.9
20260506023019 50 315 0.0 0.0 0.14 0.81 0.81 94 1008.5
20260506021517 50 313 0.0 0.0 0.12 0.77 0.77 93 1008.3
20260506020015 50 311 0.0 0.0 0.09 0.73 0.73 94 1008.1
20260506014518 50 244 0.0 0.0 0.07 0.70 0.70 94 1008.1
20260506013015 50 244 0.0 0.0 0.06 0.67 0.67 94 1008.1
20260506011514 50 244 0.0 0.0 0.08 0.65 0.65 94 1008.0
20260506010014 50 244 0.0 0.0 0.09 0.64 0.64 94 1007.8
20260506004512 50 235 0.0 0.0 0.08 0.63 0.63 94 1008.0
20260506003015 50 91 0.0 0.0 0.07 0.61 0.61 93 1007.7
20260506001511 50 90 0.0 0.0 0.03 0.56 0.56 93 1007.4
20260506000011 51 88 0.0 0.0 0.03 0.55 0.55 93 1007.5
20260505234512 51 88 0.0 0.0 0.07 0.55 0.55 93 1007.3
20260505233010 51 113 0.0 0.0 0.14 0.54 0.54 93 1007.3
20260505231510 51 323 0.0 0.0 0.15 0.54 0.54 93 1007.8
20260505230021 51 302 0.0 0.0 0.15 0.52 0.52 93 1007.8
20260505224506 51 54 0.0 0.0 0.13 0.47 0.47 92 1007.9
20260505223002 53 17 0.0 4.0 0.09 0.40 0.40 92 1007.4
20260505221602 53 53 0.0 2.0 0.11 0.39 0.39 92 1007.5
20260505220057 54 32 0.0 0.0 0.14 0.40 0.37 92 1007.2
20260505214555 55 68 0.0 0.0 0.17 0.37 0.34 91 1007.1
20260505213057 57 5 0.0 3.0 0.18 0.34 0.31 90 1007.1
20260505211551 58 295 0.0 2.0 0.17 0.30 0.27 92 1006.8
20260505210047 58 252 0.0 0.0 0.17 0.26 0.23 92 1007.1
20260505204545 59 232 0.0 1.0 0.11 0.19 0.16 90 1006.8
20260505203045 59 251 0.0 0.0 0.09 0.16 0.13 91 1006.7
20260505201547 59 250 0.0 0.0 0.07 0.13 0.10 90 1006.7
20260505200044 59 251 0.0 5.0 0.03 0.09 0.06 88 1006.7
20260505194539 60 269 0.0 0.0 0.02 0.08 0.05 86 1007.0
20260505193038 61 230 0.0 3.0 0.00 0.06 0.03 83 1007.0
20260505191536 63 271 0.0 8.0 0.00 0.06 0.03 79 1006.8
20260505190035 64 196 0.0 3.0 0.00 0.06 0.03 75 1006.9
20260505184535 64 249 0.0 3.0 0.00 0.06 0.03 72 1006.9
20260505183038 64 236 0.0 4.0 0.00 0.06 0.03 72 1006.9
20260505181534 65 211 1.0 8.0 0.00 0.06 0.03 70 1007.0
20260505180045 65 200 0.0 4.0 0.00 0.06 0.03 70 1006.9
20260505174538 65 285 0.0 4.0 0.00 0.06 0.03 70 1006.7
20260505173032 65 280 0.0 12.0 0.00 0.06 0.03 70 1006.7